Regional Weather Roundup
Issued by NWS

Home | Current Version | Previous Version | Text Only | Print | Product List | Glossary Off
Versions: 1 2 3 4 5 6 7 8 9 10 11 12 13 14 15 16 17 18 19 20 21 22 23 24 25 26 27 28 29 30 31 32 33 34 35 36 37 38 39 40 41 42 43 44 45 46 47 48 49 50

000
ASUS43 KMPX 110501
RWRMN
WEATHER ROUNDUP FOR MINNESOTA
NATIONAL WEATHER SERVICE TWIN CITIES/CHANHASSEN MN
1200 AM CDT FRI JUL 11 2014


NOTE: "FAIR" INDICATES FEW OR NO CLOUDS BELOW 12,000 FEET WITH NO
SIGNIFICANT WEATHER AND/OR OBSTRUCTIONS TO VISIBILITY. N/A MEANS
CURRENT SKY AND/OR WEATHER CONDITIONS ARE NOT AVAILABLE.

MNZ060>063-068>070-110600-
   Twin Cities Metro

CITY           SKY/WX    TMP DP  RH WIND       PRES   REMARKS
TWIN CITIES    MOCLDY    75  59  57 S14       29.99S
ST PAUL        MOCLDY    74  59  59 S16G22    29.99F
CRYSTAL        LGT RAIN  76  59  55 S13       29.96F
BLAINE         MOCLDY    75  61  60 S13G18    29.98S
LAKEVILLE      CLOUDY    72  59  64 S10       30.01S
EDEN PRAIRIE   MOCLDY    75  59  57 S16       29.97F
SOUTH ST PAUL  MOCLDY    74  58  57 S12G17    30.00S
LAKE ELMO      FAIR      72  61  68 S9        30.02S
$$
MNZ001>005-007-008-013>017-022>024-027-028-110600-
   Northwest Minnesota

CITY           SKY/WX    TMP DP  RH WIND       PRES   REMARKS
BEMIDJI        RAIN      66  65  96 SE5       29.92S
HALLOCK        MOCLDY    70  64  83 S10       29.81R
ROSEAU         CLEAR     70  63  78 S8        29.84F
WARROAD        PTCLDY    70  63  78 S10       29.85F
THIEF RVR FALL   N/A    N/A N/A N/A MISG        N/A
CROOKSTON      CLEAR     66  63  88 SE7       29.84S
FOSSTON        PTCLDY    66  63  88 SE9       29.88F
DETROIT LAKES  PTCLDY    70  68  94 S8        29.90F
MOORHEAD       MOCLDY    72  72 100 SE8       29.84F
PARK RAPIDS    CLOUDY    68  67  96 SE8       29.92S
$$
MNZ006-009>011-018-025>026-110600-
   North Central Minnesota

CITY           SKY/WX    TMP DP  RH WIND       PRES   REMARKS
BAUDETTE       PTCLDY    68  59  73 VRB6      29.89S
FLAG ISLAND    MOCLDY    72  63  73 SE9       29.84F
INTL FALLS     MOCLDY    65  59  81 SE5       29.90F
BIG FORK       CLOUDY    70  63  78 S7        29.93R
LONGVILLE      RAIN      66  66 100 S8        29.96R
GRAND RAPIDS   CLOUDY    68  63  83 S7        29.97R
CRANE LAKE     MOCLDY    57  55  94 CALM      29.96S
ORR            MOCLDY    68  55  64 SE7       29.92S
COOK           MOCLDY    66  59  77 SE5       29.95F
$$
MNZ012-019>021-037-110600-
   Northeast Minnesota

CITY           SKY/WX    TMP DP  RH WIND       PRES   REMARKS
DULUTH         PTCLDY    61  52  72 SE8       29.99F
ELY            MOCLDY    63  54  72 CALM      29.99S
HIBBING        MOCLDY    68  59  73 SE7       29.96S
EVELETH        MOCLDY    64  55  72 SE6       29.98F
DULUTH HARBOR  PTCLDY    55  52  88 NE8       30.00F
TWO HARBORS    PTCLDY    57  52  82 CALM      29.98F
SILVER BAY     MOCLDY    55  55 100 CALM      29.99F
GRAND MARAIS     N/A     48  45  89 CALM      30.01S
G MARAIS ARPRT CLOUDY    54  46  76 CALM      30.06S
$$
MNZ029>031-032-039>041-046>048-054>057-064-110600-
   West Central Minnesota

CITY           SKY/WX    TMP DP  RH WIND       PRES   REMARKS
FERGUS FALLS   CLOUDY    72  66  83 S15       29.86S
WHEATON        MOCLDY    72  64  78 S14       29.85S
MORRIS         PTCLDY    73  66  78 S16G22    29.86F
ALEXANDRIA     CLOUDY    73  64  73 S9G22     29.93S
ELBOW LAKE     CLOUDY    68  66  94 SE9G18    29.87S
WADENA         LGT RAIN  68  66  94 S7        29.92S
GLENWOOD       MOCLDY    73  64  73 S15       29.93R
APPLETON       MOCLDY    75  64  69 S10G17    29.88S
BENSON         MOCLDY    73  64  73 S14       29.90S
ORTONVILLE     MOCLDY    73  66  78 S8        29.88S
MADISON        MOCLDY    77  66  69 S13G20    29.89S
WILLMAR        FAIR      75  63  64 S10G16    29.95R
$$
MNZ033>034-036-042>043-049>051-058-059-110600-
   Central Minnesota

CITY           SKY/WX    TMP DP  RH WIND       PRES   REMARKS
ST CLOUD       CLOUDY    76  60  57 S12       29.95R
SAUK CENTRE    CLOUDY    71  64  80 S12G20    29.93S
PAYNESVILLE    RAIN      71  61  70 SE12G17   29.95S
AITKIN         LGT RAIN  72  64  78 S5        29.95R
PINE RIVER     LGT RAIN  66  66 100 SE5       29.98S
BRAINERD       LGT RAIN  72  65  78 SE3       29.96R
STAPLES        CLOUDY    68  64  88 SE3       29.93S
LONG PRAIRIE   CLOUDY    68  64  88 SE5       29.94R
LITTLE FALLS   RAIN      70  63  78 S6        29.95R
LITCHFIELD     CLOUDY    75  63  64 S6        29.96R
BUFFALO        CLOUDY    74  59  58 S7        29.98R
MAPLE LAKE     CLOUDY    75  62  63 S6        29.97S
$$
MNZ037-044-045-052-053-110600-
   East Central Minnesota

CITY           SKY/WX    TMP DP  RH WIND       PRES   REMARKS
PRINCETON      MOCLDY    75  61  60 S9        29.97S
MORA           LGT RAIN  70  59  68 CALM      29.98S
CAMBRIDGE      CLOUDY    77  61  57 SE5       29.96S
RUSH CITY      CLOUDY    73  60  63 S8        29.98S
MOOSE LAKE     LGT RAIN  64  61  88 N3        29.96S
HINCKLEY       FAIR      72  63  73 S9        29.97S
CLOQUET        MOCLDY    59  54  82 E5        29.98F
MCGREGOR       CLOUDY    70  63  78 S3        29.97R
$$
MNZ071>073-080-081-089-090-097-098-110600-
   Southwest Minnesota

CITY           SKY/WX    TMP DP  RH WIND       PRES   REMARKS
MONTEVIDEO     MOCLDY    75  64  69 S8G16     29.92S
GRANITE FALLS  CLOUDY    74  64  69 S13       29.94R
CANBY          CLOUDY    75  65  71 S10G17    29.91S
MARSHALL       CLOUDY    75  64  69 S17G23    29.92R
REDWOOD FALLS  MOCLDY    75  62  64 S13       29.94R
OLIVIA         CLOUDY    73  63  68 S10       29.95R
PIPESTONE      CLOUDY    73  64  73 S16G24    29.95R
WINDOM         CLOUDY    73  59  60 S15G22    29.98R
WORTHINGTON    CLOUDY    72  64  78 S17       29.98S
JACKSON        CLOUDY    72  57  60 S14G20    30.00S
TRACY          CLOUDY    74  64  71 S15G23    29.95R
SLAYTON        CLOUDY    72  64  74 S18G25    29.97R
$$
MNZ065>067-074>077-082>085-091>093-110600-
   South Central Minnesota

CITY           SKY/WX    TMP DP  RH WIND       PRES   REMARKS
MANKATO        CLOUDY    73  57  56 S15G21    30.00R
NEW ULM        MOCLDY    73  61  64 S14       29.97R
ST JAMES       MOCLDY    75  59  57 S15G23    29.99S
FAIRMONT       MOCLDY    72  57  60 S17       30.00S
GLENCOE        LGT RAIN  74  60  61 S7        29.97S
FARIBAULT      MOCLDY    75  55  50 S12       30.02S
OWATONNA       CLOUDY    73  57  56 S12       30.03S
WASECA         CLOUDY    72  54  53 S15G24    30.03S
ALBERT LEA     CLOUDY    73  57  56 S13       30.05R
$$
MNZ078>079-086>088-094>096-110600-
   Southeast Minnesota

CITY           SKY/WX    TMP DP  RH WIND       PRES   REMARKS
ROCHESTER      PTCLDY    67  58  72 S12       30.07F
RED WING       PTCLDY    73  57  56 S7        30.02S
STANTON        MOCLDY    73  59  61 S9        30.00S
DODGE CENTER   PTCLDY    70  59  68 S14       30.06S
WINONA         PTCLDY    73  61  64 S6        30.06S
AUSTIN         MOCLDY    70  57  64 S10       30.06S
PRESTON        CLEAR     67  60  77 S8        30.09S
$$
ABBREVIATIONS USED IN REMARKS
   TC - TEMPERATURES IN CELSIUS
  WCI - WIND CHILL INDEX
   HX - HEAT INDEX
  VSB - VISIBILITY
$$


USA.gov is the U.S. government's official web portal to all federal, state and local government web resources and services.